Regional Weather Roundup
Issued by NWS

Home | Current Version | Previous Version | Text Only | Print | Product List | Glossary On
Versions: 1 2 3 4 5 6 7 8 9 10 11 12 13 14 15 16 17 18 19 20 21 22 23 24 25 26 27 28 29 30 31 32 33 34 35 36 37 38 39 40 41 42 43 44 45 46 47 48 49 50
000
ASUS46 KSEW 060010
RWRWA

WASHINGTON REGIONAL WEATHER ROUNDUP
NATIONAL WEATHER SERVICE SEATTLE WA
500 PM PDT SUN JUL 05 2015

NOTE:"FAIR" INDICATES FEW OR NO CLOUDS BELOW 12,000 FEET WITH NO
SIGNIFICANT WEATHER AND/OR OBSTRUCTIONS TO VISIBILITY.

WAZ505-507>509-060100-
SEATTLE, TACOMA, EVERETT, AND VICINITY

CITY           SKY/WX    TMP DP  RH WIND       PRES   REMARKS
EVERETT        SUNNY     84  49  29 N7        29.86S
6HR MIN TEMP:  75; 6HR MAX TEMP:  84;

BOEING FIELD   SUNNY     90  46  21 NW7       29.81S
6HR MIN TEMP:  80; 6HR MAX TEMP:  91;

RENTON         SUNNY     89  50  26 NW6       29.81S
6HR MIN TEMP:  79; 6HR MAX TEMP:  90;

SEATAC AIRPORT PTSUNNY   90  46  21 W7        29.84S
6HR MIN TEMP:  79; 6HR MAX TEMP:  91;

JBLM-MCCHORD   SUNNY     90  44  20 NE6       29.82F
6HR MIN TEMP:  80; 6HR MAX TEMP:  90;

PUYALLUP       FAIR      93  46  20 VRB5      29.84S
BREMERTON      SUNNY     90  45  20 N9        29.86S
6HR MIN TEMP:  79; 6HR MAX TEMP:  91;

JBLM-FT LEWIS  SUNNY     92  45  19 N6        29.82S
6HR MIN TEMP:  81; 6HR MAX TEMP:  93; 6HR PCP: TRACE;

TACOMA NARROWS SUNNY     87  45  23 VRB6      29.83S
6HR MIN TEMP:  76; 6HR MAX TEMP:  88;

$$

WAZ001-503-506-510-514-515-060100-
NORTH INTERIOR

CITY           SKY/WX    TMP DP  RH WIND       PRES   REMARKS
BELLINGHAM     PTSUNNY   83  53  35 W6        29.82F
6HR MIN TEMP:  81; 6HR MAX TEMP:  93;

FRIDAY HARBOR  SUNNY     74  49  41 CALM      29.84S
6HR MIN TEMP:  74; 6HR MAX TEMP:  85;

EASTSOUND      SUNNY     75  54  46 N5        29.83S
PORT ANGELES   MOSUNNY   83  43  24 SW3       29.86S
6HR MIN TEMP:  82; 6HR MAX TEMP:  85;

PORT TOWNSEND  FAIR      86  45  23 NW8       29.83S
NAS WHIDBEY    MOSUNNY   75  48  38 VRB3      29.87S
6HR MIN TEMP:  67; 6HR MAX TEMP:  78;

ARLINGTON      SUNNY     86  54  32 W9        29.83S
6HR MIN TEMP:  79; 6HR MAX TEMP:  88;

BURLINGTON     SUNNY     79  48  34 NW13      29.83S
$$

WAZ020-022-039-040-504-511-512-060100-
SOUTHWEST INTERIOR

CITY           SKY/WX    TMP DP  RH WIND       PRES   REMARKS
SHELTON        SUNNY     94  48  20 E5        29.79S HX  90
6HR MIN TEMP:  81; 6HR MAX TEMP:  95;

OLYMPIA        SUNNY     94  45  18 N7        29.81F HX  90
6HR MIN TEMP:  81; 6HR MAX TEMP:  94;

CHEHALIS       FAIR      97  55  24 NW6       29.80S HX  95
KELSO          SUNNY     84  61  45 W13       29.85R
VANCOUVER      SUNNY     94  46  19 S6        29.79S HX  90
6HR MIN TEMP:  80; 6HR MAX TEMP:  95;

SCAPPOOSE, OR  SUNNY     97  54  23 SE8       29.78S HX  95
6HR MIN TEMP:  79; 6HR MAX TEMP:  97;

PORTLAND, OR   MOSUNNY   96  47  18 S8        29.79S HX  92
6HR MIN TEMP:  81; 6HR MAX TEMP:  96;

$$

WAZ021-516-517-060100-
WASHINGTON COAST

CITY           SKY/WX    TMP DP  RH WIND       PRES   REMARKS
FORKS          MOSUNNY   68  58  70 W7        29.88R
6HR MIN TEMP:  68; 6HR MAX TEMP:  76;

HOQUIAM        SUNNY     64  58  80 SW15      29.90R HAZE
6HR MIN TEMP:  64; 6HR MAX TEMP:  69;

ASTORIA, OR    MOSUNNY   64  57  78 SW16G22   29.91R
6HR MIN TEMP:  64; 6HR MAX TEMP:  68;

$$

WAZ019-023-024-040-518-519-060100-
CASCADE MOUNTAINS AND COLUMBIA GORGE

CITY           SKY/WX    TMP DP  RH WIND       PRES   REMARKS
TROUTDALE, OR  SUNNY     96  47  18 VRB6      29.78S HX  92
6HR MIN TEMP:  82; 6HR MAX TEMP:  97;

THE DALLES, OR SUNNY    102  41  12 NW9       29.73S HX  97
6HR MIN TEMP:  90; 6HR MAX TEMP: 103;

$$

WAZ026-027-041>044-520-521-060100-
EAST SLOPES

CITY           SKY/WX    TMP DP  RH WIND       PRES   REMARKS
OMAK           SUNNY     96  30   9 N10       29.85S HX  90
6HR MIN TEMP:  88; 6HR MAX TEMP:  97;

WENATCHEE      SUNNY     98  30   9 S6        29.81S HX  92
6HR MIN TEMP:  87; 6HR MAX TEMP:  98;

ELLENSBURG     SUNNY     98  33  10 E7        29.86S HX  92
6HR MIN TEMP:  87; 6HR MAX TEMP:  99;

YAKIMA         SUNNY     98  39  13 E6        29.82S HX  93
6HR MIN TEMP:  91; 6HR MAX TEMP:  99;

$$

WAZ028-034-035-060100-
COLUMBIA BASIN

CITY           SKY/WX    TMP DP  RH WIND       PRES   REMARKS
EPHRATA        SUNNY     97  33  10 NE12G17   29.83R HX  91
6HR MIN TEMP:  90; 6HR MAX TEMP:  98;

MOSES LAKE     SUNNY     98  34  10 VRB7      29.83S HX  92
6HR MIN TEMP:  91; 6HR MAX TEMP:  99;

PASCO          SUNNY     96  52  22 NW14      29.76S HX  93
6HR MIN TEMP:  89; 6HR MAX TEMP:  97;

HERMISTON, OR  SUNNY     99  40  13 VRB3      29.77F HX  94
6HR MIN TEMP:  91; 6HR MAX TEMP: 100;

$$

WAZ036>038-060100-
NORTHEAST WASHINGTON

CITY           SKY/WX    TMP DP  RH WIND       PRES   REMARKS
SPOKANE GEIGER PTSUNNY   86  43  22 NE17G23   29.93R
6HR MIN TEMP:  81; 6HR MAX TEMP:  88;

SPOKANE FELTS  MOSUNNY   87  43  21 NE9G17    29.92R
6HR MIN TEMP:  83; 6HR MAX TEMP:  89;

FAIRCHILD AFB  MOSUNNY   85  44  23 NE17      29.93S
6HR MIN TEMP:  80; 6HR MAX TEMP:  86;

COEURDALENE,ID MOSUNNY   84  46  26 N21       29.93R
6HR MIN TEMP:  79; 6HR MAX TEMP:  84;

DEER PARK      MOSUNNY   85  46  25 NE15G24   29.94R
6HR MIN TEMP:  80; 6HR MAX TEMP:  87;

$$

WAZ029>033-060100-
SOUTHEAST WASHINGTON

CITY           SKY/WX    TMP DP  RH WIND       PRES   REMARKS
PULLMAN        SUNNY     89  47  23 N10G17    29.91R
6HR MIN TEMP:  82; 6HR MAX TEMP:  91;

LEWISTON, ID   SUNNY     98  45  16 NW14      29.78F HX  94
6HR MIN TEMP:  91; 6HR MAX TEMP:  98;

WALLA WALLA    SUNNY     96  44  16 S9        29.80F HX  92
6HR MIN TEMP:  85; 6HR MAX TEMP:  97;

PENDLETON, OR  SUNNY     96  39  13 NE5       29.82F HX  91
6HR MIN TEMP:  87; 6HR MAX TEMP:  98;

$$


USA.gov is the U.S. government's official web portal to all federal, state and local government web resources and services.